Track YAOGAN-30 D now! 10-day predictions YAOGAN-30 D is classified as:
1 43028U 17075A 21023.95878209 .00000170 00000-0 20105-4 0 9993 2 43028 34.9967 247.0593 0001847 229.0723 130.9821 14.89854496172510